Location: Newark
(45.4981°N, 4.1681°E)
Time: 00:58:47
(UTC+00:00)

Envisat - Visible Passes

Search period start: 20 September 2019 00:00
Search period end: 30 September 2019 00:00
Orbit: 764 x 766 km, 98.1° (Epoch: 19 September)

Date Brightness Start Highest point End Pass type
(mag) Time Alt. Az. Time Alt. Az. Time Alt. Az.
20 Sep 6.1 19:27:38 10° WSW 19:29:43 12° W 19:31:49 10° WNW visible
21 Sep 5.3 18:48:18 10° SSW 18:52:32 27° W 18:56:49 10° NW visible
22 Sep 3.9 18:10:35 10° S 18:15:34 56° W 18:20:34 10° NNW visible
23 Sep 5.9 19:15:17 10° SW 19:18:19 16° W 19:21:21 10° NW visible
24 Sep 4.9 18:36:38 10° SSW 18:41:12 33° W 18:45:47 10° NNW visible
25 Sep 3.4 17:59:13 10° S 18:04:16 71° WSW 18:09:22 10° NNW visible
26 Sep 5.8 19:03:17 10° SW 19:06:56 20° W 19:10:36 10° NW visible
27 Sep 4.5 18:25:06 10° SSW 18:29:52 41° W 18:34:41 10° NNW visible
28 Sep 3.1 17:47:56 10° SSE 17:53:01 87° WSW 17:58:08 10° NNW visible
28 Sep 6.2 19:31:15 10° WSW 19:32:47 11° W 19:34:18 10° WNW visible
29 Sep 5.4 18:51:28 10° SSW 18:55:33 24° W 18:59:41 10° NW visible
